Precipitable_Water
0.72 0.72 0.72 0.72 0.70 0.70 0.70 0.70 0.70 0.70 0.70 0.68 0.68 0.68 0.68 0.66 0.66 0.66 0.66 0.66 0.66 0.66 0.66 0.64 0.64 0.66 0.66 0.66 0.64 0.64 0.64 0.64 0.64 0.64 0.64 0.64 0.64 0.64 0.64 0.64 0.64 0.66 0.66 0.66 0.66 0.66 0.66 0.66 0.64 0.64 0.64 0.64 0.64 0.66 0.70 0.72 0.74 0.74 0.74 0.72 0.72 0.74 0.76 0.78 0.78 0.80 0.84 0.90 0.92
0.72 0.72 0.72 0.72 0.72 0.72 0.70 0.70 0.70 0.70 0.70 0.70 0.70 0.70 0.68 0.68 0.68 0.66 0.66 0.68 0.66 0.66 0.66 0.68 0.68 0.68 0.68 0.68 0.66 0.66 0.66 0.66 0.66 0.66 0.66 0.66 0.66 0.66 0.66 0.66 0.66 0.66 0.66 0.66 0.66 0.66 0.66 0.66 0.66 0.64 0.64 0.64 0.62 0.62 0.64 0.68 0.68 0.68 0.68 0.66 0.66 0.70 0.76 0.78 0.78 0.78 0.80 0.82 0.90
0.70 0.72 0.72 0.72 0.72 0.70 0.70 0.70 0.70 0.70 0.70 0.70 0.70 0.70 0.70 0.70 0.70 0.68 0.68 0.68 0.68 0.68 0.68 0.68 0.68 0.68 0.68 0.68 0.68 0.68 0.70 0.68 0.68 0.68 0.68 0.68 0.68 0.68 0.68 0.68 0.68 0.68 0.68 0.68 0.68 0.68 0.66 0.66 0.66 0.64 0.64 0.62 0.62 0.62 0.62 0.64 0.64 0.64 0.62 0.62 0.64 0.68 0.74 0.76 0.78 0.78 0.78 0.80 0.86
0.70 0.70 0.70 0.70 0.70 0.70 0.70 0.70 0.70 0.70 0.70 0.70 0.70 0.70 0.70 0.70 0.70 0.70 0.70 0.70 0.70 0.70 0.70 0.70 0.70 0.70 0.70 0.70 0.70 0.70 0.70 0.70 0.70 0.68 0.68 0.68 0.68 0.68 0.68 0.68 0.66 0.66 0.66 0.68 0.68 0.68 0.68 0.68 0.68 0.66 0.64 0.62 0.62 0.60 0.60 0.60 0.60 0.60 0.60 0.60 0.64 0.66 0.70 0.74 0.76 0.76 0.76 0.78 0.82
0.70 0.70 0.70 0.70 0.70 0.70 0.70 0.70 0.70 0.70 0.70 0.70 0.70 0.70 0.70 0.70 0.70 0.70 0.70 0.70 0.70 0.70 0.70 0.70 0.70 0.70 0.70 0.70 0.70 0.70 0.70 0.70 0.70 0.70 0.68 0.68 0.68 0.68 0.68 0.68 0.66 0.66 0.66 0.68 0.68 0.68 0.68 0.68 0.68 0.66 0.66 0.64 0.64 0.62 0.62 0.60 0.60 0.60 0.60 0.62 0.64 0.66 0.68 0.68 0.72 0.74 0.76 0.78 0.80
0.70 0.70 0.70 0.68 0.68 0.68 0.68 0.68 0.68 0.68 0.68 0.68 0.68 0.68 0.66 0.66 0.66 0.66 0.66 0.66 0.66 0.68 0.68 0.70 0.70 0.68 0.66 0.66 0.66 0.66 0.68 0.68 0.68 0.68 0.68 0.68 0.68 0.68 0.66 0.66 0.66 0.66 0.66 0.68 0.68 0.68 0.68 0.70 0.68 0.68 0.68 0.66 0.66 0.66 0.66 0.66 0.64 0.62 0.62 0.62 0.64 0.66 0.68 0.70 0.70 0.72 0.74 0.78 0.78
0.68 0.68 0.68 0.68 0.68 0.68 0.68 0.68 0.68 0.66 0.66 0.64 0.64 0.64 0.62 0.62 0.62 0.62 0.62 0.62 0.62 0.64 0.64 0.64 0.62 0.62 0.62 0.62 0.62 0.62 0.64 0.66 0.66 0.66 0.66 0.66 0.66 0.66 0.66 0.66 0.66 0.66 0.68 0.68 0.68 0.70 0.70 0.70 0.70 0.68 0.68 0.68 0.66 0.66 0.68 0.68 0.66 0.66 0.66 0.64 0.66 0.68 0.70 0.70 0.70 0.72 0.72 0.74 0.74
0.68 0.68 0.68 0.68 0.68 0.68 0.66 0.66 0.64 0.64 0.64 0.62 0.62 0.62 0.60 0.60 0.62 0.62 0.62 0.62 0.62 0.60 0.58 0.58 0.58 0.58 0.58 0.58 0.58 0.58 0.60 0.60 0.62 0.62 0.64 0.64 0.64 0.66 0.66 0.66 0.66 0.68 0.68 0.68 0.68 0.68 0.70 0.70 0.68 0.68 0.68 0.68 0.66 0.66 0.66 0.68 0.66 0.66 0.68 0.68 0.70 0.70 0.72 0.70 0.70 0.70 0.70 0.70 0.70
0.64 0.64 0.64 0.66 0.64 0.64 0.62 0.62 0.62 0.60 0.60 0.60 0.58 0.58 0.58 0.58 0.56 0.56 0.56 0.56 0.56 0.56 0.56 0.56 0.56 0.56 0.56 0.56 0.56 0.56 0.56 0.58 0.58 0.58 0.60 0.62 0.62 0.64 0.64 0.66 0.66 0.66 0.68 0.68 0.68 0.66 0.68 0.68 0.68 0.68 0.66 0.66 0.66 0.66 0.66 0.68 0.68 0.68 0.70 0.72 0.72 0.74 0.72 0.72 0.72 0.70 0.70 0.70 0.68
0.62 0.62 0.62 0.62 0.62 0.62 0.62 0.60 0.60 0.60 0.58 0.58 0.58 0.58 0.58 0.58 0.60 0.60 0.60 0.60 0.60 0.60 0.58 0.58 0.58 0.56 0.56 0.56 0.56 0.56 0.56 0.56 0.56 0.56 0.58 0.58 0.60 0.62 0.62 0.64 0.64 0.66 0.66 0.66 0.66 0.66 0.66 0.66 0.66 0.66 0.66 0.66 0.66 0.66 0.66 0.66 0.68 0.70 0.72 0.74 0.74 0.74 0.74 0.74 0.72 0.72 0.70 0.70 0.70
0.64 0.64 0.64 0.64 0.64 0.64 0.64 0.64 0.64 0.62 0.62 0.62 0.62 0.62 0.62 0.62 0.62 0.62 0.62 0.62 0.62 0.62 0.62 0.62 0.60 0.58 0.56 0.56 0.56 0.56 0.56 0.56 0.56 0.56 0.56 0.56 0.58 0.60 0.62 0.64 0.64 0.64 0.64 0.66 0.66 0.66 0.64 0.64 0.64 0.64 0.64 0.64 0.64 0.64 0.64 0.66 0.68 0.70 0.70 0.72 0.72 0.72 0.72 0.74 0.74 0.72 0.72 0.72 0.70
0.64 0.64 0.66 0.66 0.64 0.64 0.64 0.64 0.62 0.62 0.62 0.62 0.62 0.62 0.64 0.64 0.64 0.64 0.64 0.64 0.62 0.62 0.62 0.64 0.62 0.60 0.60 0.60 0.58 0.58 0.56 0.56 0.56 0.56 0.56 0.56 0.58 0.58 0.60 0.62 0.64 0.64 0.64 0.64 0.64 0.64 0.64 0.62 0.62 0.62 0.62 0.62 0.62 0.62 0.64 0.66 0.68 0.68 0.68 0.68 0.68 0.68 0.70 0.70 0.72 0.72 0.72 0.72 0.72
0.60 0.62 0.62 0.62 0.62 0.62 0.62 0.62 0.62 0.60 0.62 0.62 0.62 0.62 0.62 0.62 0.64 0.62 0.62 0.62 0.62 0.62 0.60 0.60 0.60 0.60 0.60 0.60 0.60 0.60 0.58 0.58 0.58 0.58 0.58 0.58 0.58 0.58 0.60 0.60 0.62 0.62 0.62 0.62 0.62 0.62 0.62 0.62 0.60 0.60 0.60 0.60 0.62 0.62 0.64 0.66 0.66 0.66 0.66 0.66 0.66 0.66 0.68 0.68 0.70 0.70 0.70 0.70 0.70
0.52 0.54 0.56 0.58 0.58 0.58 0.58 0.58 0.58 0.58 0.58 0.58 0.60 0.60 0.60 0.60 0.62 0.62 0.62 0.60 0.60 0.60 0.60 0.60 0.60 0.58 0.58 0.58 0.58 0.58 0.58 0.58 0.56 0.58 0.58 0.58 0.58 0.58 0.58 0.58 0.60 0.60 0.60 0.60 0.60 0.60 0.60 0.60 0.60 0.60 0.60 0.60 0.60 0.62 0.64 0.64 0.64 0.64 0.64 0.64 0.64 0.66 0.66 0.68 0.68 0.70 0.70 0.70 0.70
0.42 0.46 0.50 0.52 0.54 0.54 0.54 0.54 0.54 0.54 0.54 0.54 0.56 0.56 0.56 0.58 0.58 0.60 0.60 0.60 0.60 0.60 0.60 0.60 0.60 0.58 0.58 0.56 0.56 0.56 0.56 0.56 0.56 0.56 0.56 0.56 0.58 0.58 0.56 0.56 0.56 0.56 0.58 0.58 0.58 0.58 0.58 0.58 0.58 0.58 0.58 0.60 0.60 0.62 0.62 0.62 0.62 0.62 0.62 0.62 0.64 0.64 0.64 0.66 0.68 0.68 0.68 0.68 0.68
0.34 0.38 0.42 0.44 0.46 0.48 0.50 0.50 0.50 0.50 0.50 0.50 0.50 0.52 0.52 0.52 0.54 0.56 0.58 0.58 0.58 0.58 0.58 0.60 0.60 0.60 0.58 0.58 0.58 0.56 0.56 0.54 0.54 0.54 0.54 0.56 0.56 0.56 0.54 0.54 0.54 0.54 0.54 0.56 0.56 0.56 0.56 0.58 0.58 0.58 0.58 0.58 0.60 0.60 0.60 0.60 0.60 0.60 0.60 0.62 0.62 0.62 0.62 0.64 0.64 0.64 0.64 0.66 0.66
0.31 0.34 0.36 0.38 0.40 0.42 0.44 0.46 0.48 0.48 0.48 0.48 0.48 0.48 0.48 0.50 0.50 0.52 0.54 0.54 0.56 0.56 0.56 0.56 0.58 0.58 0.58 0.58 0.58 0.58 0.56 0.56 0.56 0.54 0.54 0.54 0.54 0.54 0.54 0.54 0.54 0.52 0.54 0.54 0.54 0.54 0.54 0.56 0.56 0.56 0.56 0.56 0.58 0.58 0.56 0.58 0.58 0.58 0.58 0.58 0.58 0.60 0.60 0.62 0.60 0.60 0.60 0.62 0.62
0.31 0.32 0.34 0.34 0.36 0.38 0.40 0.42 0.44 0.44 0.46 0.46 0.46 0.46 0.46 0.46 0.46 0.48 0.50 0.52 0.52 0.52 0.52 0.52 0.54 0.54 0.56 0.58 0.58 0.56 0.56 0.56 0.56 0.56 0.54 0.54 0.54 0.56 0.56 0.54 0.54 0.52 0.52 0.52 0.52 0.54 0.54 0.54 0.54 0.54 0.54 0.54 0.56 0.54 0.54 0.54 0.56 0.56 0.56 0.56 0.56 0.56 0.58 0.58 0.56 0.56 0.56 0.56 0.58
0.31 0.31 0.32 0.32 0.34 0.34 0.36 0.38 0.40 0.42 0.44 0.44 0.44 0.44 0.44 0.44 0.44 0.44 0.46 0.46 0.46 0.46 0.46 0.48 0.48 0.50 0.52 0.54 0.54 0.56 0.56 0.54 0.54 0.54 0.54 0.56 0.54 0.54 0.54 0.54 0.54 0.52 0.52 0.52 0.52 0.52 0.54 0.54 0.54 0.54 0.54 0.54 0.54 0.54 0.54 0.54 0.54 0.54 0.54 0.56 0.56 0.56 0.56 0.56 0.56 0.56 0.56 0.54 0.56
0.29 0.29 0.31 0.31 0.32 0.32 0.32 0.34 0.36 0.38 0.40 0.40 0.40 0.40 0.40 0.42 0.42 0.40 0.40 0.38 0.38 0.38 0.38 0.40 0.42 0.44 0.46 0.50 0.52 0.52 0.52 0.54 0.54 0.52 0.52 0.52 0.52 0.52 0.52 0.52 0.52 0.52 0.52 0.50 0.50 0.50 0.52 0.52 0.52 0.54 0.54 0.52 0.52 0.50 0.52 0.52 0.52 0.52 0.54 0.54 0.54 0.56 0.56 0.54 0.54 0.54 0.54 0.54 0.54
0.27 0.27 0.29 0.29 0.29 0.29 0.29 0.31 0.31 0.32 0.34 0.34 0.34 0.36 0.36 0.36 0.36 0.34 0.34 0.32 0.32 0.32 0.32 0.34 0.36 0.38 0.40 0.42 0.46 0.48 0.50 0.52 0.50 0.50 0.50 0.50 0.50 0.50 0.52 0.52 0.52 0.52 0.52 0.50 0.50 0.50 0.50 0.50 0.50 0.50 0.50 0.48 0.48 0.48 0.48 0.48 0.50 0.50 0.50 0.52 0.52 0.54 0.52 0.50 0.52 0.52 0.52 0.54 0.54
0.25 0.25 0.25 0.25 0.27 0.27 0.27 0.27 0.27 0.29 0.29 0.29 0.31 0.31 0.31 0.31 0.31 0.31 0.29 0.29 0.29 0.29 0.29 0.29 0.31 0.31 0.32 0.34 0.38 0.42 0.44 0.46 0.48 0.44 0.42 0.42 0.44 0.46 0.48 0.48 0.48 0.48 0.50 0.50 0.48 0.48 0.46 0.46 0.46 0.46 0.46 0.42 0.42 0.44 0.44 0.44 0.44 0.46 0.46 0.48 0.48 0.48 0.48 0.44 0.46 0.46 0.48 0.48 0.50
0.23 0.23 0.23 0.23 0.23 0.23 0.23 0.23 0.23 0.25 0.25 0.25 0.25 0.25 0.25 0.25 0.25 0.25 0.25 0.25 0.25 0.25 0.25 0.25 0.25 0.25 0.25 0.27 0.29 0.31 0.32 0.36 0.32 0.31 0.29 0.31 0.32 0.34 0.36 0.38 0.38 0.40 0.40 0.42 0.42 0.42 0.42 0.40 0.40 0.38 0.34 0.34 0.34 0.36 0.36 0.38 0.38 0.38 0.40 0.40 0.42 0.40 0.38 0.38 0.38 0.40 0.40 0.42 0.44
0.21 0.21 0.21 0.21 0.21 0.21 0.21 0.21 0.21 0.21 0.21 0.21 0.21 0.21 0.21 0.21 0.21 0.21 0.21 0.21 0.21 0.21 0.21 0.21 0.21 0.23 0.23 0.23 0.23 0.25 0.25 0.25 0.23 0.23 0.25 0.25 0.25 0.25 0.27 0.27 0.27 0.27 0.29 0.31 0.31 0.31 0.31 0.31 0.31 0.27 0.23 0.25 0.25 0.27 0.29 0.31 0.31 0.32 0.32 0.32 0.34 0.32 0.29 0.29 0.31 0.32 0.32 0.34 0.36
0.19 0.19 0.19 0.19 0.19 0.19 0.19 0.19 0.19 0.17 0.17 0.19 0.19 0.19 0.19 0.19 0.19 0.19 0.19 0.19 0.19 0.19 0.19 0.19 0.21 0.21 0.21 0.21 0.23 0.23 0.23 0.23 0.23 0.23 0.23 0.23 0.25 0.25 0.25 0.25 0.25 0.25 0.23 0.25 0.25 0.25 0.25 0.23 0.23 0.21 0.19 0.19 0.19 0.21 0.21 0.21 0.23 0.23 0.23 0.25 0.25 0.23 0.21 0.21 0.23 0.23 0.25 0.27 0.27
0.17 0.17 0.17 0.17 0.17 0.17 0.17 0.17 0.17 0.17 0.17 0.17 0.17 0.17 0.17 0.17 0.17 0.17 0.17 0.19 0.19 0.19 0.19 0.19 0.19 0.19 0.19 0.21 0.21 0.21 0.21 0.23 0.23 0.23 0.23 0.23 0.25 0.25 0.25 0.25 0.27 0.25 0.25 0.25 0.25 0.25 0.25 0.23 0.23 0.21 0.21 0.19 0.19 0.19 0.19 0.19 0.19 0.19 0.19 0.19 0.17 0.17 0.17 0.17 0.17 0.17 0.19 0.19 0.19
0.15 0.15 0.15 0.15 0.15 0.15 0.15 0.15 0.15 0.15 0.17 0.17 0.17 0.17 0.17 0.17 0.17 0.17 0.17 0.17 0.17 0.19 0.19 0.19 0.19 0.19 0.19 0.19 0.19 0.19 0.19 0.21 0.21 0.21 0.23 0.23 0.23 0.23 0.25 0.25 0.27 0.27 0.27 0.25 0.25 0.25 0.25 0.23 0.23 0.21 0.21 0.19 0.19 0.19 0.17 0.17 0.17 0.17 0.17 0.17 0.17 0.17 0.15 0.15 0.15 0.17 0.17 0.17 0.19
0.13 0.13 0.13 0.15 0.15 0.15 0.15 0.15 0.15 0.15 0.15 0.15 0.17 0.17 0.17 0.17 0.17 0.17 0.17 0.17 0.19 0.19 0.19 0.19 0.19 0.19 0.19 0.17 0.17 0.19 0.19 0.21 0.21 0.21 0.21 0.21 0.23 0.23 0.23 0.25 0.25 0.27 0.27 0.25 0.25 0.25 0.23 0.23 0.23 0.21 0.21 0.19 0.19 0.17 0.17 0.17 0.17 0.17 0.17 0.17 0.15 0.15 0.15 0.15 0.15 0.15 0.17 0.17 0.17
0.13 0.13 0.13 0.13 0.13 0.13 0.13 0.15 0.15 0.15 0.15 0.15 0.17 0.17 0.17 0.17 0.17 0.17 0.17 0.17 0.19 0.19 0.19 0.19 0.19 0.19 0.17 0.17 0.17 0.17 0.19 0.21 0.21 0.21 0.21 0.21 0.21 0.21 0.23 0.23 0.25 0.27 0.27 0.27 0.25 0.25 0.23 0.23 0.23 0.21 0.21 0.19 0.19 0.19 0.17 0.17 0.17 0.17 0.17 0.17 0.17 0.15 0.15 0.15 0.15 0.15 0.17 0.17 0.17
0.13 0.13 0.13 0.13 0.13 0.13 0.13 0.15 0.15 0.15 0.17 0.17 0.17 0.17 0.17 0.17 0.17 0.17 0.17 0.17 0.17 0.19 0.19 0.19 0.19 0.17 0.17 0.17 0.17 0.17 0.17 0.17 0.19 0.19 0.19 0.19 0.21 0.21 0.21 0.23 0.23 0.25 0.27 0.27 0.27 0.25 0.23 0.23 0.21 0.21 0.21 0.19 0.19 0.19 0.17 0.17 0.17 0.17 0.17 0.17 0.17 0.17 0.17 0.17 0.17 0.17 0.17 0.17 0.17
0.13 0.13 0.13 0.13 0.13 0.13 0.13 0.15 0.15 0.15 0.17 0.17 0.17 0.17 0.17 0.17 0.17 0.17 0.17 0.17 0.17 0.19 0.19 0.19 0.17 0.17 0.17 0.17 0.17 0.17 0.17 0.17 0.19 0.19 0.19 0.19 0.19 0.21 0.21 0.21 0.23 0.25 0.25 0.27 0.27 0.25 0.23 0.23 0.21 0.21 0.21 0.19 0.19 0.19 0.17 0.17 0.17 0.17 0.17 0.17 0.17 0.17 0.17 0.17 0.17 0.17 0.17 0.17 0.17
0.13 0.13 0.13 0.13 0.13 0.13 0.15 0.15 0.15 0.15 0.15 0.15 0.15 0.17 0.15 0.15 0.17 0.17 0.17 0.17 0.17 0.17 0.17 0.17 0.17 0.17 0.17 0.17 0.17 0.17 0.17 0.17 0.17 0.17 0.19 0.19 0.19 0.19 0.21 0.21 0.21 0.23 0.25 0.27 0.25 0.25 0.25 0.23 0.21 0.21 0.19 0.19 0.19 0.19 0.17 0.17 0.17 0.17 0.17 0.17 0.17 0.17 0.17 0.17 0.17 0.17 0.17 0.17 0.17
0.13 0.13 0.13 0.13 0.13 0.15 0.15 0.15 0.15 0.15 0.15 0.15 0.15 0.15 0.15 0.15 0.15 0.17 0.17 0.17 0.17 0.17 0.17 0.17 0.17 0.17 0.17 0.17 0.17 0.17 0.17 0.17 0.17 0.17 0.19 0.19 0.19 0.19 0.19 0.19 0.21 0.23 0.25 0.27 0.25 0.25 0.25 0.23 0.21 0.21 0.19 0.19 0.19 0.19 0.17 0.17 0.17 0.17 0.17 0.17 0.17 0.17 0.17 0.17 0.17 0.17 0.17 0.17 0.17
0.13 0.13 0.13 0.13 0.13 0.15 0.15 0.15 0.15 0.15 0.15 0.15 0.15 0.15 0.15 0.15 0.15 0.15 0.15 0.17 0.17 0.17 0.17 0.17 0.17 0.17 0.17 0.17 0.17 0.17 0.17 0.17 0.17 0.17 0.17 0.19 0.19 0.19 0.19 0.19 0.19 0.21 0.23 0.25 0.25 0.25 0.25 0.25 0.21 0.21 0.19 0.19 0.19 0.19 0.19 0.19 0.19 0.17 0.17 0.17 0.17 0.17 0.17 0.17 0.17 0.17 0.17 0.17 0.17
0.15 0.13 0.13 0.13 0.15 0.15 0.15 0.15 0.15 0.15 0.15 0.15 0.15 0.15 0.15 0.15 0.15 0.15 0.15 0.17 0.17 0.17 0.17 0.17 0.17 0.17 0.17 0.17 0.17 0.17 0.15 0.15 0.15 0.17 0.17 0.17 0.17 0.17 0.17 0.19 0.19 0.21 0.23 0.25 0.25 0.25 0.25 0.25 0.23 0.21 0.19 0.19 0.19 0.19 0.19 0.19 0.19 0.19 0.17 0.17 0.17 0.17 0.17 0.19 0.19 0.17 0.17 0.17 0.19
0.15 0.15 0.15 0.15 0.15 0.15 0.15 0.15 0.15 0.15 0.15 0.15 0.15 0.15 0.15 0.15 0.15 0.15 0.17 0.17 0.17 0.17 0.17 0.17 0.17 0.17 0.17 0.17 0.17 0.15 0.15 0.15 0.15 0.15 0.17 0.17 0.17 0.17 0.17 0.19 0.19 0.21 0.23 0.25 0.25 0.25 0.25 0.25 0.25 0.23 0.21 0.19 0.19 0.19 0.19 0.19 0.19 0.19 0.17 0.17 0.17 0.17 0.17 0.17 0.19 0.19 0.19 0.19 0.19
0.15 0.15 0.15 0.15 0.15 0.15 0.15 0.15 0.15 0.15 0.15 0.15 0.15 0.15 0.15 0.15 0.15 0.15 0.17 0.17 0.17 0.15 0.15 0.17 0.17 0.17 0.15 0.15 0.15 0.15 0.15 0.15 0.15 0.15 0.15 0.17 0.17 0.17 0.17 0.19 0.19 0.21 0.21 0.23 0.25 0.25 0.25 0.25 0.25 0.23 0.21 0.19 0.19 0.19 0.19 0.19 0.19 0.17 0.17 0.17 0.17 0.17 0.17 0.17 0.17 0.17 0.17 0.17 0.19
0.15 0.15 0.15 0.15 0.15 0.15 0.15 0.15 0.15 0.15 0.15 0.15 0.15 0.15 0.15 0.15 0.15 0.15 0.15 0.17 0.15 0.15 0.15 0.15 0.15 0.15 0.15 0.17 0.15 0.15 0.15 0.15 0.15 0.15 0.15 0.17 0.17 0.17 0.17 0.17 0.19 0.19 0.21 0.23 0.25 0.25 0.25 0.25 0.25 0.23 0.21 0.19 0.19 0.19 0.19 0.19 0.17 0.17 0.17 0.17 0.17 0.17 0.17 0.17 0.17 0.17 0.17 0.17 0.19
0.15 0.15 0.15 0.15 0.15 0.15 0.15 0.15 0.15 0.15 0.15 0.15 0.15 0.15 0.15 0.15 0.15 0.15 0.15 0.17 0.15 0.15 0.15 0.15 0.15 0.15 0.17 0.17 0.17 0.15 0.15 0.17 0.17 0.17 0.17 0.17 0.17 0.17 0.17 0.17 0.19 0.19 0.21 0.23 0.25 0.25 0.25 0.25 0.25 0.23 0.21 0.19 0.19 0.19 0.19 0.17 0.17 0.17 0.17 0.17 0.17 0.17 0.17 0.17 0.17 0.17 0.17 0.17 0.17
0.17 0.17 0.15 0.15 0.15 0.15 0.15 0.15 0.15 0.15 0.15 0.15 0.15 0.15 0.15 0.15 0.15 0.15 0.15 0.17 0.17 0.15 0.15 0.15 0.15 0.17 0.17 0.17 0.17 0.15 0.15 0.17 0.17 0.17 0.17 0.17 0.17 0.17 0.17 0.17 0.19 0.19 0.21 0.21 0.23 0.25 0.25 0.23 0.23 0.23 0.23 0.21 0.19 0.19 0.17 0.17 0.17 0.17 0.17 0.15 0.15 0.15 0.17 0.17 0.17 0.17 0.17 0.17 0.17
0.17 0.17 0.17 0.15 0.15 0.15 0.15 0.15 0.15 0.15 0.15 0.15 0.15 0.15 0.15 0.15 0.15 0.15 0.17 0.17 0.17 0.17 0.15 0.15 0.17 0.17 0.17 0.17 0.17 0.15 0.15 0.15 0.17 0.17 0.17 0.17 0.17 0.17 0.17 0.17 0.17 0.19 0.19 0.21 0.23 0.25 0.25 0.23 0.23 0.23 0.23 0.21 0.19 0.19 0.17 0.17 0.17 0.17 0.15 0.15 0.15 0.15 0.15 0.17 0.17 0.17 0.15 0.17 0.17
Wind_Speed
12 13 13 14 15 15 15 16 17 17 18 18 19 19 20 20 21 21 22 23 23 24 25 25 26 26 27 27 27 28 28 28 29 29 29 29 29 30 30 30 30 30 30 30 31 31 31 31 31 32 32 32 32 32 33 33 33 34 34 34 34 34 34 34 35 35 36 36 36
10 11 12 12 13 13 13 14 14 15 15 16 17 17 18 19 19 20 21 21 22 23 23 24 24 25 25 26 26 26 27 27 27 28 28 28 28 28 29 29 29 29 29 30 30 30 30 30 31 31 32 32 32 32 33 33 33 34 34 34 34 33 33 34 35 35 36 36 36
10 11 11 11 11 11 11 12 12 13 13 14 15 16 17 17 18 19 19 20 20 21 22 22 23 23 24 24 25 25 26 26 26 26 27 27 27 27 28 28 28 28 28 29 29 29 30 30 30 31 31 32 32 32 33 33 33 33 33 33 34 33 33 34 35 35 35 36 35
9 10 10 10 10 10 10 11 11 12 12 13 13 14 15 15 16 17 17 18 19 19 20 21 22 22 23 23 24 24 24 25 25 25 26 26 26 26 27 27 27 28 28 28 29 29 30 30 30 31 31 31 32 32 32 33 33 33 33 33 34 34 34 35 35 35 35 35 35
7 8 8 8 8 9 9 10 10 11 11 12 12 13 14 14 15 15 16 17 18 18 19 20 20 21 22 22 23 23 23 23 24 24 25 25 25 25 26 26 26 27 27 28 28 29 29 30 30 30 31 31 31 32 32 32 32 33 33 33 34 34 34 35 35 35 35 35 35
6 6 6 7 7 7 8 8 9 9 10 11 11 12 13 13 14 15 16 16 17 18 18 19 19 20 21 21 22 22 22 23 23 23 24 24 24 25 25 25 25 26 26 27 27 28 28 29 29 30 30 30 31 31 32 32 32 32 33 33 33 34 34 35 35 35 35 35 35
5 5 5 5 5 5 6 7 7 8 9 10 10 11 12 13 14 14 15 16 17 17 18 19 19 20 20 21 21 22 22 22 22 23 23 23 24 24 24 24 25 25 25 26 26 27 27 28 28 29 29 30 30 30 31 31 31 31 32 32 33 33 34 34 34 34 34 35 35
4 4 4 3 3 4 4 5 6 7 7 8 9 10 11 12 13 13 14 15 16 17 18 19 19 20 20 21 21 22 22 22 22 22 22 23 23 23 23 24 24 24 25 25 25 26 26 27 27 28 28 29 29 29 30 30 30 30 30 31 32 32 33 33 34 34 34 34 35
3 3 3 2 2 2 3 3 4 5 6 6 7 8 9 10 11 12 13 14 15 16 17 17 18 19 20 20 21 21 22 22 22 22 22 22 22 23 23 23 23 24 24 24 24 25 25 26 26 27 27 28 28 28 28 28 28 28 29 30 31 32 32 33 33 33 34 34 35
3 2 2 2 1 1 1 1 2 3 3 4 5 6 7 8 9 10 11 12 13 14 15 16 16 17 18 19 20 20 21 21 22 22 22 22 22 22 22 22 22 23 23 24 24 24 25 25 26 26 27 27 27 27 27 27 27 27 28 29 30 30 30 31 31 32 33 33 34
3 3 3 3 2 2 2 1 1 1 1 2 2 3 4 5 6 7 8 10 11 12 13 14 14 15 16 17 18 18 19 20 20 20 21 21 21 21 21 21 21 22 22 23 23 24 24 24 25 25 25 26 26 26 26 26 26 26 27 28 28 29 29 30 30 31 31 31 32
4 4 3 3 3 3 2 2 2 2 1 1 1 1 1 1 2 4 5 7 8 9 10 12 12 13 14 15 16 16 17 17 18 18 18 18 18 18 19 19 19 20 20 21 22 22 22 22 23 23 24 24 24 25 25 25 25 25 26 26 27 28 29 29 30 30 29 29 29
3 3 3 3 2 2 2 2 2 2 2 3 3 3 3 2 2 1 1 3 4 5 7 8 9 10 11 13 13 14 14 15 15 15 15 15 15 16 16 16 16 17 17 18 19 19 19 20 20 21 21 22 22 22 23 23 23 24 24 25 25 26 27 27 28 28 28 28 28
2 2 2 2 2 2 2 2 2 2 3 3 4 5 5 6 6 5 5 4 3 2 2 3 4 5 7 8 9 10 11 11 12 12 12 12 12 13 13 13 14 14 14 15 15 16 16 16 17 18 18 19 19 20 20 21 21 22 22 23 23 24 24 24 25 25 25 26 26
4 4 4 4 4 3 3 3 3 3 3 4 4 5 6 7 7 8 8 7 7 6 6 5 4 3 2 2 3 4 5 6 7 8 8 9 9 9 10 10 11 11 11 12 12 13 13 14 14 15 15 16 16 17 18 18 19 20 20 21 21 21 21 22 22 23 23 23 24
6 7 7 7 7 7 6 6 5 5 5 5 5 6 6 7 7 7 8 8 8 8 8 8 7 7 6 5 4 3 2 2 2 2 3 4 4 5 6 6 7 8 8 9 9 10 10 11 11 12 12 13 14 14 15 16 17 17 18 18 19 19 20 20 20 21 21 21 22
8 8 9 9 9 9 9 8 7 7 6 6 6 6 7 6 6 6 7 7 8 8 9 9 9 8 8 8 7 7 6 5 4 4 3 2 1 1 2 3 3 4 5 6 6 7 8 8 9 9 10 10 11 12 12 13 13 14 15 15 16 17 17 18 18 19 19 20 20
8 8 9 9 9 9 9 9 8 8 7 7 7 7 7 7 6 6 6 7 7 8 8 8 8 9 8 8 8 8 8 7 7 6 6 5 5 4 3 3 2 3 3 4 4 5 5 6 6 7 7 7 8 8 9 9 10 11 11 12 12 13 14 15 15 16 17 17 18
7 8 8 8 8 8 8 8 8 8 8 8 8 7 7 7 8 8 8 8 8 8 8 8 8 8 8 8 8 8 8 8 8 8 7 7 7 6 5 5 4 4 4 4 4 4 5 5 5 6 6 6 7 7 7 8 8 9 9 10 10 11 11 12 12 13 13 14 15
7 7 7 7 7 8 8 8 8 8 8 8 8 8 8 8 8 9 9 9 9 9 9 9 9 9 9 8 8 8 8 8 8 7 7 7 7 7 7 6 6 5 5 5 5 5 6 6 6 7 7 7 8 8 8 9 9 9 10 10 10 11 11 11 12 12 13 13 14
7 7 7 7 7 7 7 7 8 8 8 8 8 8 8 8 8 9 9 9 9 10 10 10 10 10 10 10 9 9 8 8 8 8 8 8 8 7 7 7 7 6 6 6 7 7 7 7 7 8 8 8 9 9 9 10 10 10 10 11 11 11 12 12 12 13 13 14 14
7 7 7 7 7 7 7 8 8 8 8 9 9 9 9 9 9 9 9 9 10 10 10 11 11 11 11 11 10 10 10 9 9 9 8 8 8 8 8 7 7 7 7 7 7 7 8 8 8 8 8 9 9 9 10 10 10 11 11 11 11 12 12 12 13 13 14 14 15
8 8 8 8 8 8 8 9 9 9 9 10 10 10 10 10 10 10 10 10 10 11 11 11 11 11 11 11 11 11 10 10 10 9 9 9 8 8 8 8 8 8 8 8 8 8 8 8 8 8 9 9 9 10 10 10 10 11 11 11 12 12 12 13 13 14 14 14 15
9 9 9 9 9 9 9 9 10 10 10 10 10 10 10 10 10 10 10 11 11 11 11 11 11 11 11 11 11 11 10 10 10 10 9 9 9 8 8 8 8 8 8 8 8 8 8 8 8 9 9 9 10 10 10 11 11 11 11 12 12 13 13 13 14 14 15 15 16
9 9 9 10 10 10 10 10 10 10 10 10 10 10 10 10 10 10 11 11 11 11 11 11 11 11 11 10 10 10 10 10 10 10 10 9 9 9 9 9 9 9 9 9 9 10 10 9 9 9 10 10 11 11 11 12 12 12 13 13 14 14 14 15 15 16 16 17 17
9 9 10 10 10 10 10 10 10 10 10 10 10 10 10 10 10 10 10 11 11 11 11 11 11 11 11 10 10 10 10 10 10 10 10 11 11 10 10 10 10 10 10 10 11 11 11 11 11 11 11 11 12 12 13 13 14 14 14 15 15 16 16 17 17 18 18 18 19
9 9 9 9 10 10 10 10 10 10 10 10 10 10 10 10 10 10 10 10 10 10 10 10 11 11 11 10 10 11 11 11 11 11 11 11 11 12 12 11 11 11 11 12 12 12 13 13 13 13 13 13 13 13 14 14 15 15 16 16 17 17 18 18 19 19 19 20 20
9 9 9 9 9 9 9 9 9 9 9 9 9 9 9 9 10 10 10 10 10 10 10 10 10 10 10 10 10 10 10 10 10 10 11 11 11 11 12 12 12 12 12 12 13 13 13 14 14 14 14 14 14 14 15 15 16 16 17 17 18 18 19 19 19 20 20 21 21
9 9 9 9 9 9 9 9 9 9 9 9 9 9 9 9 9 9 9 9 10 10 10 9 9 9 10 10 10 10 10 10 10 10 10 10 11 11 11 12 12 12 12 13 13 13 14 14 14 14 14 14 14 15 15 15 16 16 17 17 18 18 19 19 20 20 21 21 22
8 8 8 8 8 8 8 8 8 8 8 8 8 8 8 9 9 9 9 9 9 9 9 9 9 9 9 9 10 10 10 9 9 9 10 10 10 11 11 12 12 12 13 13 13 13 14 14 14 15 15 15 15 15 15 16 16 16 17 18 18 19 19 20 20 21 21 22 22
8 8 8 8 8 8 8 7 7 7 8 8 8 8 8 8 8 8 8 9 9 9 9 9 9 9 9 10 10 10 10 10 10 10 10 10 11 11 11 12 12 13 13 14 14 14 14 15 15 15 15 15 15 15 15 16 16 17 17 18 18 19 20 20 21 21 22 22 23
7 7 7 7 7 7 7 7 7 7 7 7 7 8 8 8 8 8 8 8 8 9 9 9 9 10 10 10 10 10 10 11 11 11 11 11 11 11 12 12 13 14 14 14 14 14 15 15 15 15 15 16 16 16 16 17 17 17 18 18 19 20 20 21 22 22 23 23 24
6 6 7 7 6 6 6 6 6 7 7 7 7 7 7 7 8 8 8 8 8 9 9 9 10 10 10 10 11 11 11 11 11 11 12 12 12 12 12 13 13 14 15 15 15 15 15 16 16 16 16 16 17 17 17 18 18 18 19 19 20 21 22 22 23 23 24 24 25
6 6 6 6 6 6 6 6 6 6 6 7 7 7 7 7 8 8 8 8 9 9 9 10 10 10 10 11 11 11 12 12 12 12 12 12 12 12 13 13 14 15 16 16 16 16 16 16 17 17 17 18 18 18 18 19 19 20 20 21 21 22 22 23 24 24 25 25 26
6 6 6 6 6 6 6 6 6 6 6 6 7 7 7 7 8 8 8 9 9 9 9 10 10 10 11 11 11 12 12 12 12 12 12 12 12 12 13 13 14 15 16 16 17 17 17 17 17 18 18 18 19 19 19 20 20 20 21 21 22 23 23 24 24 25 25 26 26
5 5 5 5 5 5 5 5 5 6 6 6 7 7 7 8 8 8 9 9 9 9 10 10 10 11 11 11 12 12 12 12 13 13 13 13 13 13 13 14 14 15 16 17 17 17 17 17 18 18 19 19 19 19 20 20 20 21 21 22 22 23 23 24 24 25 26 26 27
5 5 5 5 5 5 5 5 5 6 6 6 7 7 7 8 8 8 9 9 9 10 10 10 11 11 11 11 12 12 12 12 13 13 13 13 13 13 13 14 14 15 17 17 17 17 18 18 18 18 19 19 19 20 20 20 21 21 22 22 23 23 24 24 25 26 26 27 28
4 4 4 4 4 5 5 5 5 6 6 6 7 7 7 8 8 9 9 9 10 10 10 11 11 11 11 11 11 12 12 12 13 13 13 13 13 13 14 14 15 16 17 18 18 18 18 19 19 19 19 20 20 20 21 21 21 22 22 23 23 24 24 25 26 26 27 28 29
4 4 4 4 4 4 5 5 5 6 6 6 7 7 8 8 8 9 9 9 9 10 10 11 11 11 11 11 12 12 12 13 13 13 13 14 14 14 15 15 15 16 17 18 19 19 19 19 20 20 20 20 20 21 21 22 22 22 23 23 24 25 25 26 27 27 28 29 30
3 3 4 4 4 4 5 5 5 6 6 6 7 7 8 8 8 9 9 9 9 10 10 10 11 11 11 11 12 12 12 13 13 13 14 14 15 15 16 16 16 17 18 19 19 19 20 20 20 21 21 21 21 21 22 22 23 23 24 24 25 26 26 27 28 28 29 30 31
3 3 4 4 4 4 5 5 5 6 6 6 7 7 8 8 8 9 9 9 10 10 10 11 11 11 11 12 12 12 13 13 14 14 14 15 15 16 16 16 17 17 18 19 20 20 20 21 21 21 22 22 22 22 23 23 24 24 25 25 26 27 27 28 29 29 30 31 32
Wind_Direction
232 234 235 235 236 238 239 240 242 243 244 244 245 246 248 249 250 251 252 252 252 253 253 253 253 254 254 255 255 256 256 256 256 256 257 257 257 257 257 257 257 257 258 258 258 258 259 259 260 260 261 262 262 263 263 263 262 263 263 264 265 265 266 266 266 267 266 264 262
234 236 239 241 243 243 244 245 245 246 245 245 246 247 248 249 250 251 251 252 252 253 253 253 253 254 255 255 256 256 256 257 257 257 257 257 257 257 257 257 258 258 258 259 259 259 260 260 261 261 262 262 263 263 264 264 264 264 265 266 266 265 265 266 267 267 266 264 263
227 230 235 242 247 249 249 250 250 250 250 249 249 250 250 250 251 251 252 252 253 253 253 253 254 254 255 255 256 256 257 257 257 257 257 257 258 258 258 258 259 259 259 259 260 260 260 261 261 261 262 263 263 264 264 264 265 265 266 267 266 266 265 266 266 267 266 264 263
219 222 229 239 247 251 252 253 254 255 255 255 255 255 254 254 254 254 254 255 255 255 254 254 254 255 255 255 256 256 256 256 256 257 257 257 258 258 259 259 259 259 260 260 260 261 261 261 261 262 262 263 264 264 264 264 265 265 266 266 267 267 267 267 267 266 265 264 263
209 215 224 235 243 247 250 252 254 256 257 258 258 258 258 257 257 257 257 257 257 256 256 256 255 255 255 255 255 256 255 256 256 256 256 257 257 258 259 259 259 259 260 260 261 261 261 261 261 262 262 263 264 264 264 264 265 265 266 267 267 268 268 268 267 266 265 263 262
188 198 211 224 232 238 243 247 251 253 255 256 256 256 256 256 256 256 256 257 257 257 257 256 256 255 255 255 255 255 255 255 255 255 255 256 256 257 258 258 258 259 259 260 260 261 261 261 261 262 262 263 263 264 264 264 265 265 266 267 268 268 268 267 267 266 265 264 263
167 178 194 210 222 231 239 245 249 251 251 252 253 253 254 254 254 255 256 256 256 257 257 256 256 256 256 255 255 255 255 254 254 254 254 254 255 256 257 257 258 258 259 259 260 261 261 261 261 262 263 263 263 264 264 264 264 265 266 267 268 268 268 267 267 266 266 265 264
161 174 189 207 223 236 244 248 249 249 250 251 253 254 254 255 255 256 256 256 257 257 257 256 256 256 256 255 255 255 254 254 254 253 253 253 254 255 256 257 258 258 259 260 260 261 262 262 262 262 262 263 263 264 264 265 265 266 267 268 268 268 268 268 268 268 268 267 266
165 178 193 208 223 236 245 249 252 253 254 255 256 257 257 257 257 257 257 257 257 257 256 256 256 256 256 256 255 255 254 254 253 253 253 253 254 255 256 257 258 259 260 260 261 262 262 262 262 262 263 263 263 264 265 266 266 267 268 268 268 268 268 269 269 269 269 268 268
153 163 170 176 182 195 217 238 252 258 260 260 260 259 259 259 259 258 258 258 257 257 257 257 257 256 256 256 255 254 253 253 252 252 253 253 254 255 256 257 259 260 260 261 262 262 263 263 263 263 264 264 264 265 265 266 267 268 269 269 269 269 269 270 270 270 270 269 269
136 142 146 145 140 137 140 150 181 223 242 248 252 254 256 258 258 258 258 257 258 259 260 259 259 258 257 256 255 254 253 252 252 251 252 252 253 255 256 257 259 260 261 262 262 263 264 264 265 266 266 266 266 266 267 268 269 270 271 271 271 271 271 271 271 271 271 271 271
135 142 145 144 141 139 139 140 142 142 142 141 146 167 223 254 261 261 261 261 262 263 263 263 262 261 260 259 257 256 254 253 252 251 251 252 253 254 256 257 259 260 262 263 264 265 266 267 268 268 269 268 268 268 269 270 271 273 274 274 274 273 274 274 273 273 272 272 273
135 143 147 148 148 148 147 143 136 125 112 101 94 86 78 68 54 15 307 286 278 273 270 268 267 265 264 263 261 259 256 254 253 252 252 252 253 254 256 258 260 262 264 265 267 268 269 270 271 271 272 271 270 270 271 272 274 276 277 277 277 277 276 276 276 275 275 275 275
107 109 113 122 131 140 143 139 129 112 96 85 79 76 71 66 61 57 50 40 24 359 326 301 285 275 269 267 266 264 260 256 254 253 252 252 254 255 257 259 261 264 266 268 270 272 273 273 274 274 274 274 274 273 274 275 277 278 279 280 280 280 279 279 278 277 277 277 276
81 82 85 89 94 99 101 100 98 91 81 75 73 72 68 62 57 53 51 50 48 45 40 33 23 8 341 306 286 277 270 264 259 256 255 255 256 258 260 262 264 267 269 271 274 276 277 278 278 277 277 276 276 277 277 279 280 281 282 283 282 282 281 280 280 279 279 278 277
77 78 79 80 80 80 80 79 78 76 71 69 69 68 65 58 50 45 42 43 44 45 45 44 42 41 39 39 38 31 13 342 305 280 269 266 265 266 268 270 272 274 276 278 281 282 283 284 283 282 281 280 280 280 281 282 283 284 285 285 284 283 282 282 281 281 280 280 279
78 78 77 75 74 72 72 71 70 68 66 65 64 63 61 56 48 39 34 33 36 39 42 44 45 46 47 48 50 52 53 52 52 52 49 38 9 329 308 300 297 293 292 292 293 294 294 293 291 289 287 285 284 284 284 285 286 287 288 288 287 286 285 284 283 282 282 281 281
78 76 74 71 70 69 68 68 67 66 65 64 62 61 60 58 53 46 38 34 35 37 39 42 44 46 47 49 50 52 54 56 56 57 58 57 54 48 37 22 3 345 331 322 316 312 309 307 303 300 297 294 293 292 293 294 295 295 296 295 294 292 291 289 288 286 285 284 284
77 74 72 71 71 70 70 69 68 67 66 66 66 65 64 63 60 57 53 49 46 46 46 45 45 45 46 47 48 50 53 55 55 56 56 56 55 51 46 39 29 18 6 356 345 337 329 324 320 317 315 314 313 313 312 312 312 312 311 310 308 305 302 300 297 295 293 292 291
79 77 76 76 77 77 76 74 72 70 69 70 70 71 70 68 66 64 62 60 59 58 57 56 53 52 50 50 50 52 53 55 55 55 55 54 52 49 44 39 33 25 16 7 358 349 341 336 333 331 330 330 330 329 328 327 326 325 323 320 318 316 314 312 309 306 304 302 300
83 82 82 83 83 82 81 79 77 74 73 73 73 73 73 72 71 69 68 67 67 66 66 64 62 60 59 58 58 57 58 59 58 57 56 53 51 48 43 39 35 29 23 17 11 4 357 351 347 344 342 340 339 338 336 335 334 332 330 327 325 323 321 318 315 312 309 307 304
85 86 86 86 85 84 83 81 79 77 76 75 75 74 74 73 72 71 71 70 69 68 67 66 65 63 62 62 62 62 62 62 61 59 57 54 52 48 43 39 35 31 28 24 20 15 10 5 360 355 351 348 345 343 341 339 337 335 333 331 329 327 324 322 319 316 313 310 307
85 86 86 85 84 83 82 82 80 79 77 76 75 74 74 73 72 71 71 70 69 67 66 65 65 64 63 62 62 61 61 59 58 56 54 52 49 46 42 37 33 29 25 21 17 13 9 4 359 355 351 348 345 343 341 339 336 334 332 330 328 325 323 321 319 317 315 312 310
85 85 85 85 84 83 83 82 81 79 78 76 75 74 73 72 71 70 69 68 66 65 64 63 62 62 61 60 59 58 56 54 52 50 48 46 44 41 38 34 30 25 20 15 11 7 3 358 353 349 346 343 341 338 336 335 333 331 329 327 324 322 320 319 317 316 315 313 311
85 85 85 84 84 83 83 82 80 78 76 75 73 72 70 68 67 66 64 63 61 60 59 57 57 56 55 54 53 51 49 47 45 42 40 37 35 33 30 27 22 17 13 9 7 4 1 356 351 346 342 339 337 334 333 331 330 328 326 325 323 321 319 318 317 316 315 314 313
85 85 84 83 82 81 80 78 77 75 73 72 70 67 65 63 62 60 58 57 55 54 52 50 49 47 46 44 43 41 39 37 35 33 31 29 26 24 21 18 13 8 5 3 2 360 357 354 351 346 341 337 335 333 331 330 328 327 326 325 323 322 321 320 319 318 316 315 314
83 82 81 80 78 77 75 74 72 71 69 66 64 62 60 58 55 53 52 50 49 48 46 44 42 40 37 35 33 31 29 27 25 24 22 20 19 17 15 12 7 2 358 357 357 355 353 351 348 345 341 336 334 332 330 329 327 327 326 325 324 323 322 321 320 319 317 316 315
79 78 77 75 73 71 70 69 67 65 63 61 59 57 55 53 50 48 46 45 43 42 41 39 37 34 32 30 27 25 23 21 19 17 15 14 12 11 9 7 3 358 355 353 352 351 349 347 345 343 340 336 332 330 328 327 326 325 325 324 323 322 321 320 319 318 317 316 315
75 74 73 71 70 68 66 64 62 61 58 57 55 53 50 48 46 43 41 40 39 38 37 35 33 30 28 25 23 20 18 16 14 12 9 7 6 4 3 2 359 356 352 350 348 347 346 344 342 341 338 335 331 328 326 325 324 323 323 322 322 321 320 319 318 317 317 316 315
73 72 71 69 68 66 64 62 60 57 55 53 50 48 46 44 42 39 37 36 35 34 33 30 28 26 24 21 18 16 14 11 8 6 4 2 360 358 357 356 354 352 350 348 346 344 343 342 341 339 336 334 330 326 324 323 322 322 321 321 320 320 319 318 317 317 316 316 315
70 69 68 66 64 62 60 58 56 53 51 48 45 43 41 39 37 35 34 32 31 29 27 25 24 22 19 16 14 12 9 6 4 2 360 357 355 354 352 351 350 349 348 347 345 342 341 340 339 337 335 333 329 325 323 323 322 321 321 320 320 320 319 318 317 317 316 316 315
67 65 64 62 59 57 55 52 50 48 45 43 40 38 36 34 33 31 29 28 26 24 22 20 19 17 15 12 10 8 6 3 1 359 356 354 352 350 349 347 347 347 347 346 344 341 340 339 338 337 335 332 329 326 324 323 323 322 321 321 321 320 320 319 318 317 317 316 315
62 61 58 56 54 51 48 46 43 42 40 38 36 33 31 30 28 26 24 23 21 19 18 16 15 13 11 8 6 4 2 0 358 356 354 351 349 348 346 345 344 345 345 345 344 341 339 338 338 337 335 333 329 327 325 325 324 324 323 322 321 321 320 319 319 318 317 316 315
56 55 52 50 47 44 42 39 37 36 34 33 30 28 26 25 23 22 20 18 17 15 14 13 11 9 7 5 2 1 359 357 355 353 351 348 347 345 344 343 342 343 344 344 343 341 339 337 337 336 335 333 330 327 326 326 325 325 323 322 322 321 320 319 318 318 317 316 315
50 49 46 43 40 38 35 33 31 30 30 28 26 23 22 20 19 17 15 14 13 12 10 9 7 5 3 0 358 357 356 354 352 350 348 346 345 343 342 341 341 341 342 343 342 340 338 337 336 335 334 332 329 328 327 326 325 325 323 322 322 321 320 319 318 317 316 315 315
44 42 40 37 34 32 29 27 26 26 25 23 21 20 18 16 14 13 11 10 9 8 6 5 3 1 359 357 354 353 352 351 349 348 346 345 344 342 340 339 339 340 341 342 341 340 338 337 335 335 334 331 329 328 327 326 325 324 324 323 322 321 320 319 318 317 316 316 315
37 35 34 31 28 25 23 22 22 21 20 19 17 16 14 13 10 8 7 6 5 4 2 0 359 357 355 353 351 350 349 348 347 346 345 344 343 342 340 338 338 339 340 341 340 340 339 338 336 334 333 331 329 328 327 326 325 324 324 323 322 321 320 319 318 317 317 316 315
30 28 27 25 22 20 18 18 18 18 16 15 13 12 10 8 6 4 3 2 2 0 358 357 355 353 351 349 348 347 347 347 346 346 345 345 344 343 341 339 338 338 339 340 340 340 339 338 337 335 333 331 329 328 326 325 325 324 324 323 322 321 320 319 318 318 317 317 317
21 20 19 18 16 14 14 15 14 14 12 11 10 8 6 4 2 360 358 358 357 356 355 354 352 350 348 347 347 346 346 346 347 346 346 345 344 344 343 340 338 337 338 339 339 339 339 338 337 335 333 332 330 328 327 326 325 325 325 324 323 322 321 320 320 319 318 318 318
12 11 11 11 10 10 10 10 10 9 8 7 6 4 2 359 357 355 354 353 353 353 352 351 350 348 347 347 347 347 346 346 346 346 346 345 345 345 344 341 338 337 337 338 338 339 339 338 337 336 334 332 331 329 328 327 326 326 326 325 324 323 322 322 321 321 320 320 320
1 2 3 4 4 5 5 5 4 3 3 2 1 359 357 355 353 352 351 350 350 350 350 349 348 348 347 348 348 347 347 346 346 346 346 345 345 344 343 340 338 337 337 337 338 338 338 338 337 336 335 333 332 331 329 328 328 328 328 327 326 325 324 323 323 322 322 322 321